Flag for United Kingdom Weather past 2 weeks in Lerwick (Shetland Islands), Scotland, United Kingdom

Now
47 °F

Overcast.


Feels Like: 36 °F
Forecast: 44 / 48 °F
Wind: 43 mph from Southwest

Location: Lerwick

Current Time: Mar 7, 2015 at 2:17:35 AM

Latest Report: Mar 7, 2015 at 1:00 AM


Visibility: 9 mi

Pressure: 29.26 "Hg

Humidity: 81%

Dew point: 41 °F

Location of Lerwick (Shetland Islands)Location

Historic Weather in Lerwick (Shetland Islands) — Graph

°F

Lerwick (Shetland Islands) temperature yesterday

Maximum temperature yesterday: 45 °F (at 6:00 PM)
Minimum temperature yesterday: 39 °F (at 5:00 AM)
Average temperature yesterday: 43 °F

Past Weeks' High & Low Weather Summary

 TemperatureHumidityPressure
High47 °F (Mar 5, 10:00 AM)100% (Feb 22, 7:00 PM)30.21 "Hg (Feb 22, 7:00 PM)
Low33 °F (Feb 22, 8:00 AM)52% (Mar 4, 1:00 PM)28.50 "Hg (Feb 23, 2:00 PM)
Average39 °F84%29.28 "Hg
* Reported Feb 20 1:00 AM — Mar 7 1:00 AM, Lerwick (Shetland Islands), Weather by CustomWeather, © 2015

Note: Actual official high and low records may vary slightly from our data, if they occured in-between our weather recording intervals... More about our weather records

Advertising

Lerwick (Shetland Islands) weather history for previous 24 hours

 ConditionsComfort  
Time TempWeatherWind HumidityBarometerVisibility
1:00 AM
Sat, Mar 7
47 °FOvercast.43 mph81%29.26 "Hg9 mi
12:00 AM46 °FLight rain. Overcast.44 mph83%29.32 "Hg4 mi
11:00 PM
Fri, Mar 6
45 °FOvercast.43 mph86%29.35 "Hg7 mi
10:00 PM45 °FLight rain. Overcast.41 mph87%29.41 "Hg4 mi
9:00 PM45 °FOvercast.44 mph83%29.44 "Hg7 mi
8:00 PM45 °FOvercast.38 mph84%29.50 "Hg6 mi
6:00 PM45 °FOvercast.44 mph81%29.59 "Hg11 mi
5:00 PM45 °FOvercast.39 mph84%29.61 "Hg9 mi
4:00 PM44 °FRain. Overcast.35 mph90%29.68 "Hg9 mi
3:00 PM44 °FRain. Overcast.36 mph91%29.72 "Hg5 mi
2:00 PM44 °FRain. Overcast.32 mph91%29.76 "Hg3 mi
1:00 PM44 °FRain. Overcast.26 mph91%29.81 "Hg6 mi
12:00 PM45 °FLow clouds.29 mph92%29.84 "Hg8 mi
11:00 AM44 °FLight rain. Low clouds.23 mph99%29.88 "Hg1 mi
10:00 AM43 °FLight rain. Low clouds.21 mph95%29.93 "Hg9 mi
9:00 AM43 °FLight rain. Overcast.21 mph90%29.98 "Hg14 mi
8:00 AM42 °FLow clouds.17 mph93%30.01 "Hg12 mi
7:00 AM41 °FLow clouds.16 mph89%30.03 "Hg11 mi
6:00 AM41 °FOvercast.14 mph91%30.06 "Hg9 mi
5:00 AM39 °FSprinkles. Passing clouds.18 mph89%30.09 "Hg4 mi
4:00 AM41 °FPassing clouds.15 mph88%30.09 "Hg11 mi
3:00 AM41 °FPassing clouds.13 mph86%30.09 "Hg11 mi
2:00 AM40 °FSprinkles. Passing clouds.13 mph83%30.10 "Hg9 mi
Weather by CustomWeather, © 2015

See weather overviewHow to use our weather pages